Location: Auckland
(36.8670°S, 174.7670°E)
Time: 03:40:48
(UTC+12:00)

A-11 Canister half - Pass Details

Date: 30 July 2019
Orbit: 1526 x 1683 km, 47.3° (Epoch: 22 August)

Event Time Altitude Azimuth Distance (km) Brightness Sun altitude
Rises 06:09:12 0° 310° (NW) 4,672 11.2 -14.6°
Reaches altitude 10° 06:12:13 10° 311° (NW) 3,692 10.7 -14.0°
Maximum altitude 06:21:32 82° 37° (NE) 1,557 9.1 -12.2°
Drops below altitude 10° 06:31:03 10° 122° (ESE) 3,769 11.7 -10.4°
Sets 06:34:10 0° 122° (ESE) 4,774 12.3 -9.8°
